Dewpoint
59 59 57 58 53 52 46 44 30 37 31 28 30 31 28 30 29 29 30 25 22 22 26 31 29 30 27 28 29 31 33 31 33 28 35 46 54 55 59 62 61 63 64 65 66 68 70 70 71 71 71 70 70 70 70 70 70 70 70 70 70 70 70 70 70 70 69 70 70 70 70 70 69 69 69 69 69 69 69 69 70 70 70 70 69 70 69 69 69 68 68 68 67 66 66 65 65
59 56 55 55 54 48 44 39 33 31 28 23 22 30 31 33 26 29 30 27 24 30 26 32 30 34 35 34 32 32 30 32 34 35 43 47 50 55 59 62 61 63 65 66 66 67 69 70 70 71 70 70 70 70 70 70 70 70 70 70 70 70 70 69 70 69 69 70 70 70 70 69 69 69 69 68 68 68 68 68 69 69 69 69 69 69 69 68 68 67 67 67 66 65 64 64 63
56 54 53 53 51 46 44 36 28 25 24 17 16 27 30 27 26 27 29 28 22 22 24 31 34 33 32 32 29 28 30 36 41 43 44 49 54 55 59 61 61 63 65 65 66 67 68 70 69 70 71 70 71 70 70 70 70 70 70 70 70 69 70 69 70 70 70 70 70 70 69 69 68 68 68 67 67 67 67 68 68 68 68 69 68 68 68 67 67 66 66 66 65 64 63 62 62
55 55 52 51 47 43 39 37 30 27 27 20 19 23 26 28 28 26 26 26 26 24 29 31 29 34 30 27 29 29 29 30 37 43 41 49 53 57 59 61 61 63 64 65 66 67 68 68 69 70 70 70 70 70 70 70 70 70 69 70 70 69 69 70 69 70 70 70 69 69 69 68 68 67 66 66 66 66 66 66 67 67 67 67 67 67 67 67 66 65 65 64 63 62 61 61 61
53 55 53 48 46 40 36 36 32 26 21 25 16 22 29 31 28 27 25 25 28 26 27 29 28 31 32 30 30 31 28 34 35 44 44 50 52 57 60 60 61 62 64 64 64 66 67 67 68 69 70 70 70 70 70 70 70 69 69 69 70 70 70 70 70 70 69 69 69 69 68 68 67 66 66 66 65 64 64 65 65 65 66 66 66 66 66 65 65 64 63 62 61 61 61 60 60
49 50 48 49 41 44 32 30 31 25 21 24 24 19 28 30 29 26 27 27 28 28 26 27 28 28 28 28 30 28 35 30 40 45 48 48 52 59 60 60 61 62 63 63 63 65 66 66 68 69 70 69 70 70 70 70 69 69 69 70 70 70 70 70 69 69 69 69 68 68 68 67 67 66 66 65 64 64 64 64 64 65 64 64 64 64 64 64 64 62 61 61 60 60 60 59 59
49 43 43 41 37 39 34 29 28 30 28 24 26 24 24 26 28 27 26 25 29 28 28 27 26 27 24 24 26 31 38 45 43 47 50 50 53 60 59 61 61 62 62 62 63 63 64 66 68 69 69 69 69 69 69 70 69 70 69 70 69 69 70 69 69 69 68 68 67 67 67 66 66 65 64 64 64 63 64 64 64 64 63 63 63 63 63 63 62 62 61 60 60 60 59 58 58
50 44 43 35 33 32 31 31 31 31 30 26 29 31 30 31 30 27 27 26 25 27 27 26 27 25 22 27 25 31 36 41 47 47 47 50 56 60 60 61 61 62 61 61 61 62 62 65 68 69 69 69 69 69 69 68 69 69 68 68 68 68 68 68 68 68 67 67 67 66 66 65 65 64 63 62 62 63 63 63 63 63 63 62 62 62 62 62 61 60 60 60 59 58 57 57 56
43 42 39 34 32 29 28 27 29 31 31 31 30 34 40 36 33 30 29 27 26 25 24 25 27 23 20 20 26 33 30 41 44 47 50 53 57 59 60 60 61 61 61 60 61 61 62 64 66 68 68 69 69 68 68 68 68 67 68 67 67 68 67 67 67 67 66 66 66 65 65 64 63 63 62 60 60 61 61 62 62 62 62 61 61 61 61 61 61 60 59 59 58 58 56 56 55
42 38 34 31 30 25 26 21 24 22 27 30 30 25 26 29 29 31 28 26 26 27 24 25 25 20 22 20 21 25 27 42 44 47 49 53 57 59 60 60 60 61 60 60 60 61 61 62 64 66 67 68 68 68 68 68 67 67 67 66 65 66 67 66 66 66 65 66 65 64 64 63 61 60 60 61 61 60 60 61 61 61 61 61 61 61 61 60 59 59 58 58 58 57 56 55 55
35 39 38 30 29 26 25 21 23 24 26 28 30 30 30 30 30 27 27 26 26 25 25 26 25 22 23 23 25 36 39 41 44 44 48 53 57 59 59 59 59 60 60 60 60 60 61 62 62 64 66 66 67 67 67 67 67 67 67 65 63 64 64 65 65 64 64 62 62 63 63 61 60 60 60 60 60 60 60 60 60 61 61 61 60 60 60 59 59 59 59 58 57 56 55 54 54
33 37 35 29 27 25 25 24 26 26 29 30 24 27 24 30 29 28 26 27 28 24 24 26 26 25 25 24 32 32 32 35 44 46 48 53 57 58 59 58 57 58 59 59 58 59 60 61 63 62 63 63 65 66 66 66 67 67 67 65 64 63 63 63 64 62 62 62 61 61 61 59 60 60 60 60 60 60 60 60 60 60 60 60 60 61 60 59 59 59 58 57 56 55 55 53 52
35 36 30 26 26 27 29 28 29 35 30 23 24 27 27 27 26 26 26 26 26 23 23 24 26 28 24 26 33 29 28 37 43 47 49 54 57 56 56 56 56 57 57 58 59 59 59 60 62 63 63 62 62 62 64 64 65 66 66 65 65 64 64 64 62 62 61 60 61 61 60 61 61 60 60 60 60 59 59 59 59 59 59 59 59 59 59 59 59 58 58 57 56 55 55 53 52
37 35 29 26 30 28 28 29 28 26 22 24 24 24 25 27 27 26 25 25 24 23 25 25 27 24 24 24 27 28 29 36 44 48 51 53 55 55 56 55 56 56 56 57 58 59 59 60 60 61 62 63 64 62 61 63 64 65 64 65 65 64 64 64 63 62 61 62 62 62 62 62 61 60 60 60 60 59 59 59 59 60 59 58 58 58 59 59 58 58 57 56 55 54 54 52 51
37 37 34 31 28 27 28 26 25 23 20 24 24 23 24 31 25 25 24 26 23 24 29 26 28 25 19 21 22 29 31 36 47 48 50 51 54 54 54 54 54 55 56 56 57 58 58 59 60 60 60 62 62 63 63 63 61 63 63 64 64 64 64 63 63 62 62 62 63 62 61 61 60 60 61 60 59 60 60 60 59 59 59 59 59 58 58 57 57 56 56 55 54 53 52 51 50
39 34 33 30 27 25 26 26 28 24 22 23 25 24 22 21 24 24 22 24 28 31 25 22 30 22 25 22 27 28 29 43 45 47 50 52 52 52 53 53 54 54 55 56 56 57 59 59 59 60 60 60 61 61 62 63 61 60 62 62 63 63 63 63 62 61 60 60 60 60 59 59 58 59 58 59 59 60 60 59 60 59 58 58 58 57 57 56 56 56 55 55 54 53 51 50 48
39 36 27 25 24 23 26 25 24 23 26 28 28 24 21 21 25 24 24 25 22 21 28 25 26 31 24 24 31 30 37 45 46 48 49 50 52 52 53 53 53 53 53 54 55 57 57 58 58 59 59 59 60 60 61 61 62 59 60 60 61 61 61 61 61 59 57 57 58 56 56 59 59 59 59 59 57 59 57 57 59 59 58 57 56 56 55 55 55 55 54 53 53 52 50 49 48
38 32 27 25 25 23 27 22 23 25 23 20 23 21 22 21 22 24 22 22 23 22 22 23 24 26 26 27 39 40 42 44 45 47 48 49 51 51 53 53 53 54 54 54 54 55 56 56 58 58 58 58 59 59 59 60 61 61 62 62 62 61 59 58 60 61 57 60 56 57 56 55 54 55 56 55 56 57 57 56 58 58 57 56 55 55 54 53 53 51 50 49 47 44 40 37 40
34 30 26 24 25 25 28 23 23 20 20 21 22 22 22 22 23 22 22 21 20 20 20 23 21 22 23 24 37 40 42 43 45 46 47 48 49 50 51 52 52 54 54 54 54 54 55 56 57 57 58 57 58 58 59 59 60 61 60 60 60 58 60 59 59 58 57 56 55 54 53 52 51 52 53 53 54 53 56 55 57 57 56 55 55 54 54 53 52 51 49 47 44 41 37 37 34
35 30 26 25 27 25 27 25 23 23 23 22 22 24 22 22 22 23 23 21 20 19 20 22 20 20 21 22 32 39 41 42 44 46 45 46 47 49 50 51 52 53 53 54 54 54 55 55 56 57 57 57 57 57 58 58 59 59 58 58 59 59 59 57 56 55 54 53 52 51 50 49 50 50 51 51 52 54 55 55 56 56 55 55 55 53 52 51 50 49 46 44 39 36 34 33 32
35 31 29 29 29 26 25 27 26 25 25 24 24 24 23 23 21 22 20 22 22 21 21 21 21 20 21 22 27 39 39 40 42 44 45 45 46 47 48 49 50 51 53 53 53 53 54 55 56 56 56 56 56 56 57 57 58 57 57 57 57 57 56 55 53 52 51 50 49 48 48 48 48 48 50 50 50 50 51 51 51 50 50 49 47 46 43 42 38 38 36 36 35 36 34 33 32
34 29 31 30 28 27 26 26 27 27 27 25 25 23 24 23 22 20 21 21 22 21 21 22 21 21 21 20 23 38 38 39 40 42 44 44 45 44 46 47 48 49 50 51 52 52 53 54 55 55 55 55 56 56 57 57 56 57 57 56 56 55 55 53 51 50 48 47 46 46 46 46 46 47 47 47 47 46 47 46 45 44 44 43 40 37 34 34 33 34 34 34 33 33 34 34 34
28 29 31 32 28 27 28 27 27 27 24 25 24 25 25 25 24 21 20 21 23 24 23 23 21 21 21 23 33 36 37 38 38 40 42 43 44 44 44 45 46 47 48 50 51 51 52 53 54 54 54 54 55 56 56 56 56 57 57 54 55 53 52 51 50 49 47 44 44 45 45 44 45 45 44 44 43 42 43 42 40 40 40 37 34 33 34 33 32 32 32 33 32 33 33 33 32
31 26 28 28 31 30 30 29 26 26 25 26 25 27 27 27 25 25 21 22 23 24 24 23 23 22 21 22 29 28 33 36 37 38 40 41 43 43 44 44 44 46 47 47 49 50 50 51 53 53 54 54 54 54 55 55 56 56 55 53 53 52 50 50 49 47 46 42 42 42 44 43 43 42 43 41 40 38 40 38 37 36 35 33 31 31 33 31 31 32 33 33 32 32 32 32 30
31 29 29 29 29 30 30 30 30 29 29 29 28 27 26 25 25 23 22 22 22 23 23 22 21 21 22 21 20 25 29 33 35 37 39 40 42 43 44 44 43 44 44 45 47 48 49 50 51 52 53 53 53 53 54 54 54 55 54 54 53 51 50 50 48 45 43 41 40 42 42 42 41 41 41 40 36 36 35 35 34 33 33 32 31 30 31 31 31 31 31 31 31 31 30 30 30
30 28 30 30 28 27 27 26 26 27 26 26 24 23 23 22 25 20 20 21 22 22 21 21 21 21 21 21 21 21 23 29 33 34 36 39 41 40 41 42 42 41 43 44 45 46 47 48 50 51 52 53 53 52 53 53 53 53 54 53 53 51 50 49 45 43 42 40 38 40 41 41 40 39 39 36 34 33 33 33 33 32 31 31 30 31 30 30 30 30 31 31 31 30 30 30 29
28 30 29 28 27 25 25 23 23 23 24 23 22 21 20 21 21 17 19 20 21 21 21 21 20 20 20 20 21 21 21 24 26 30 36 37 39 40 39 41 41 40 41 42 43 44 45 46 49 50 51 52 52 51 52 52 52 52 52 52 51 51 49 47 44 42 41 39 38 40 40 40 39 38 37 35 33 31 31 32 31 30 30 31 30 31 31 31 30 29 31 29 29 29 29 30 27
24 25 21 20 21 20 21 21 20 21 19 21 21 19 20 20 23 17 16 20 21 18 17 17 18 19 18 19 19 24 23 25 26 33 31 33 36 38 38 39 40 40 40 40 41 43 43 44 46 48 50 51 51 51 52 52 51 52 52 51 50 51 47 46 44 41 39 38 38 39 39 38 37 36 37 34 33 30 29 29 30 30 30 31 30 32 31 31 30 31 31 31 31 30 29 28 28
22 21 20 20 19 18 19 18 18 20 18 20 20 19 17 20 17 16 17 19 19 18 18 17 17 17 19 20 19 21 22 23 27 30 31 30 32 35 37 38 38 39 40 40 40 41 41 42 43 46 48 50 50 50 50 51 51 51 51 50 50 50 46 45 44 41 39 38 38 39 38 37 36 35 35 34 33 30 29 29 29 30 30 31 31 33 33 32 31 31 31 30 29 29 29 28 29
21 20 20 18 17 15 15 18 19 19 18 20 14 10 12 12 15 14 14 17 18 17 17 16 16 16 17 18 18 21 22 23 25 28 29 31 31 32 35 36 38 38 39 39 39 38 39 41 42 44 47 48 49 49 49 50 50 50 50 49 49 48 45 44 43 42 39 36 37 38 38 37 35 33 34 33 31 28 29 29 30 29 30 32 33 32 31 31 29 30 29 28 29 28 28 28 26
19 20 19 20 17 14 16 16 18 16 20 19 13 13 10 10 10 11 18 13 12 11 11 11 13 14 15 19 20 20 20 23 22 22 28 30 31 33 34 35 37 38 39 39 38 38 37 39 40 39 44 47 48 49 49 49 49 49 48 48 46 46 44 43 43 42 39 36 35 36 37 36 35 34 34 32 30 28 27 27 28 29 31 32 31 31 30 30 29 28 29 27 29 26 28 28 26
22 15 18 21 15 17 16 20 15 13 16 20 14 15 11 10 10 11 16 16 13 11 11 12 13 14 15 17 17 18 18 19 23 24 23 25 30 31 34 34 35 36 37 38 38 38 36 37 39 39 41 44 46 47 48 48 48 48 47 46 45 45 44 43 42 40 39 36 35 36 37 36 35 34 33 32 29 27 26 25 26 28 32 31 31 31 30 29 27 29 29 27 25 26 26 26 27
21 16 19 16 19 17 14 14 16 16 17 20 13 11 13 10 13 14 15 19 16 15 14 15 15 15 16 15 16 16 18 18 21 20 22 24 26 28 30 32 35 36 37 37 37 38 37 37 38 38 38 41 43 45 47 47 46 46 45 45 44 43 42 41 40 39 38 37 35 35 36 35 35 34 33 33 30 28 25 25 26 30 31 30 30 30 29 29 28 30 27 27 25 24 27 26 26
19 21 16 22 15 14 12 14 13 23 15 14 16 13 12 11 12 13 14 15 15 15 15 15 15 15 16 17 18 17 18 19 18 18 19 30 25 25 26 33 33 34 36 37 37 37 36 37 37 37 37 38 40 43 44 45 44 44 43 42 42 40 41 40 39 37 37 36 36 35 36 35 35 34 33 32 30 29 26 26 27 30 30 30 30 29 29 29 28 26 25 28 26 26 22 21 24
17 16 17 14 16 16 14 15 11 13 16 13 14 14 14 14 15 15 15 15 15 15 14 14 15 15 16 16 17 16 18 19 18 19 27 29 29 27 26 28 31 34 33 35 36 36 37 37 37 37 37 37 38 39 42 43 42 41 39 39 39 39 39 38 37 36 36 35 35 36 36 34 35 34 34 33 30 29 27 26 27 30 30 29 29 28 29 29 28 26 26 27 28 27 24 25 23
14 15 14 14 12 12 14 15 15 15 13 11 12 12 12 13 13 13 13 14 14 13 14 14 14 14 15 15 17 18 20 18 20 27 32 32 30 29 27 27 29 31 31 33 35 36 36 36 36 36 37 35 36 36 39 40 38 37 36 35 35 36 36 36 36 35 35 34 35 35 36 35 35 33 33 32 31 30 27 25 27 30 29 28 28 28 28 28 28 26 27 28 28 26 27 27 27
16 19 19 13 14 14 13 13 13 16 13 12 13 13 13 13 13 13 13 14 15 14 14 15 15 16 17 18 18 19 20 19 31 33 35 34 34 32 30 29 29 29 30 32 34 35 36 35 36 35 36 36 36 36 37 37 37 36 35 34 34 34 34 35 35 34 34 34 35 35 36 35 36 34 33 32 31 30 28 26 27 29 28 28 28 28 29 29 27 25 26 27 25 22 22 25 27
17 18 18 15 20 14 15 14 16 17 16 15 13 14 15 15 15 15 16 16 15 15 15 15 15 16 17 18 19 20 21 31 34 31 30 31 31 34 33 31 32 28 29 30 32 34 35 35 35 35 36 35 35 35 36 36 36 35 34 34 34 34 33 33 33 33 33 34 34 35 35 35 36 35 33 32 31 30 28 26 26 28 28 27 28 29 29 29 28 26 27 24 27 21 20 25 25
19 17 19 18 17 19 17 17 18 18 18 16 17 16 16 16 16 17 16 16 16 16 17 16 16 17 18 19 20 22 24 26 26 27 32 28 32 32 32 32 31 29 29 31 32 34 35 35 35 35 35 35 35 35 36 36 36 36 35 34 33 33 33 33 34 34 34 33 33 34 34 35 35 34 34 32 31 30 28 27 26 26 27 27 26 27 28 28 26 27 26 20 20 27 26 28 24
19 20 19 17 21 17 16 17 19 18 16 16 17 17 17 17 17 17 17 17 17 19 19 20 20 19 19 18 21 24 25 26 25 26 25 26 28 27 29 31 31 32 31 31 32 33 34 35 35 35 34 34 35 35 36 37 37 36 35 35 35 33 32 33 34 33 34 34 33 34 34 34 34 34 34 33 31 30 29 27 26 26 26 27 27 26 27 27 26 26 26 23 22 19 22 21 28
22 21 20 18 19 18 17 16 18 18 19 21 19 17 16 17 17 18 19 21 19 19 20 20 22 24 24 28 26 30 25 26 27 26 26 26 27 28 29 29 31 32 32 32 32 32 31 34 35 35 34 34 34 35 36 36 37 36 35 34 34 33 34 33 32 32 32 32 32 32 32 34 34 34 33 32 31 30 30 28 27 26 26 26 25 25 26 26 26 26 26 23 23 14 20 24 25
19 23 20 18 18 17 17 19 19 18 18 20 17 14 17 20 21 20 20 20 19 19 22 20 20 21 24 22 24 27 30 29 29 26 27 28 28 29 29 30 30 32 32 32 33 33 33 34 35 35 34 34 34 35 35 36 36 35 33 32 31 31 30 31 30 30 31 31 31 32 32 33 33 33 33 32 32 30 30 29 28 26 26 25 25 24 25 25 26 24 24 22 23 23 18 22 19
19 19 22 20 18 20 21 20 20 17 14 18 20 15 14 19 18 19 19 20 18 19 20 19 20 22 23 24 26 25 26 28 30 30 30 29 28 28 28 28 30 30 30 33 33 33 33 35 35 35 34 34 35 34 35 35 35 35 34 33 33 32 31 31 31 32 31 31 31 31 31 32 33 33 33 32 31 31 30 29 29 27 25 25 25 23 23 25 25 25 25 22 21 23 24 17 20
19 24 23 23 22 21 22 22 21 18 23 24 23 19 14 15 19 19 21 20 17 18 18 19 21 20 20 21 23 25 27 31 29 29 29 28 28 28 27 28 29 29 31 32 34 34 34 34 35 35 34 34 35 35 35 35 34 34 34 33 33 33 32 32 32 31 32 31 31 31 31 31 32 32 32 32 31 31 30 29 29 28 26 25 25 23 23 24 25 26 26 24 23 22 23 16 20
21 25 24 23 21 22 22 21 20 20 19 19 20 22 16 17 20 19 20 19 17 17 17 19 20 21 21 22 25 27 28 28 27 31 26 27 27 28 28 29 30 31 32 32 33 34 35 35 35 34 34 34 34 35 34 35 34 34 34 33 33 33 33 33 32 32 32 32 31 32 31 31 31 32 32 32 32 31 30 29 29 27 26 25 25 25 23 25 25 24 25 23 22 22 21 21 19
23 25 26 25 25 24 23 20 19 19 17 17 18 21 13 15 20 17 19 19 18 19 19 19 21 22 25 26 26 27 28 30 30 26 26 27 28 28 30 30 30 31 31 33 34 34 34 34 34 33 33 33 34 34 34 34 34 34 33 33 33 33 33 31 31 32 32 32 31 32 31 31 30 31 31 31 31 31 30 30 29 28 26 25 25 24 25 25 25 25 25 24 24 22 22 21 19
26 26 24 24 23 21 20 19 20 17 14 17 18 20 16 16 21 19 19 22 19 20 19 19 23 22 23 27 26 28 28 26 26 26 27 27 28 28 29 29 30 30 31 32 33 33 33 33 33 32 32 33 33 33 33 33 33 33 33 33 33 33 33 31 31 31 31 31 30 31 31 31 31 30 30 30 31 31 30 29 28 28 26 25 25 25 24 23 23 24 24 25 24 23 21 22 23
26 23 21 21 20 16 15 12 17 12 15 17 18 19 18 16 18 20 19 19 19 19 17 15 20 20 22 26 26 25 25 25 25 26 26 26 26 27 28 28 30 30 30 30 31 32 33 33 32 32 31 32 32 33 33 33 33 33 33 33 32 32 32 31 29 29 30 30 30 30 31 30 30 31 30 30 30 30 29 29 29 28 26 25 25 24 23 22 22 22 22 23 22 23 23 22 21
25 22 21 15 15 15 9 13 10 11 16 17 18 19 16 16 20 16 17 18 18 18 17 18 19 19 21 24 25 27 29 25 26 25 26 26 27 27 28 29 30 30 31 30 30 31 31 31 31 31 31 31 31 32 33 33 33 32 33 32 32 31 32 31 30 30 30 30 30 30 30 30 30 30 30 29 29 30 29 28 28 27 26 25 25 25 24 24 23 22 22 24 23 23 21 22 19
23 20 22 18 13 11 11 12 7 11 16 17 18 19 16 19 19 20 19 19 20 21 20 21 22 21 22 23 26 26 28 27 26 26 26 27 27 27 28 29 30 30 30 30 29 30 31 31 31 30 30 31 31 31 32 32 32 32 32 32 32 31 31 31 30 30 30 29 30 30 30 30 30 30 30 30 29 30 29 28 28 27 27 26 26 25 25 24 24 21 22 22 23 22 21 23 21
21 25 22 22 20 17 16 14 18 19 21 17 17 14 18 15 20 23 20 21 21 21 23 25 25 24 25 25 27 25 25 25 26 26 27 27 27 27 29 29 29 29 29 30 29 29 30 30 31 30 29 30 30 30 31 31 32 32 32 32 32 31 31 31 30 31 30 30 29 30 30 30 30 30 30 30 30 30 29 29 28 27 27 26 25 25 25 24 24 22 21 22 21 21 22 22 20
26 27 25 20 20 24 19 22 22 22 19 18 13 18 18 19 23 23 23 22 22 23 23 24 22 24 24 23 25 25 25 26 26 26 27 26 26 27 27 28 28 28 29 29 29 30 30 29 30 30 30 30 30 30 30 31 31 31 32 31 31 31 31 31 31 31 30 30 30 30 29 30 30 30 30 31 30 30 29 29 28 28 27 26 25 25 25 23 24 22 20 21 21 23 22 22 20
25 23 21 22 27 23 22 23 25 24 21 21 22 21 23 24 25 23 24 22 20 23 20 19 22 21 20 23 25 26 26 27 26 26 26 25 25 25 25 26 27 28 28 28 29 29 29 29 29 29 29 29 30 29 30 29 30 30 30 31 31 31 31 30 30 30 30 30 30 29 29 29 30 30 31 30 30 30 29 28 28 27 26 26 25 24 24 23 23 21 20 21 20 21 21 22 20
23 20 24 27 29 29 24 21 23 22 21 22 25 24 23 25 24 22 24 24 22 21 20 20 20 20 21 24 26 27 26 26 26 26 25 25 25 25 25 25 25 26 27 28 28 29 29 29 28 28 27 28 29 29 29 29 29 29 30 30 30 30 30 30 30 30 30 29 29 29 29 29 29 29 29 30 29 29 29 28 27 27 26 26 25 24 24 23 23 20 20 20 19 21 20 19 20
24 26 29 24 22 20 21 21 18 20 20 23 26 25 25 26 25 26 26 24 20 19 19 19 20 22 24 26 27 26 26 25 25 25 26 25 25 24 24 24 25 25 26 27 28 29 28 28 28 28 27 27 27 29 29 29 29 30 31 30 30 29 29 29 30 29 29 28 28 28 28 28 28 28 28 29 29 29 28 28 27 26 26 25 24 24 23 23 21 19 19 19 18 18 18 17 18
29 27 25 28 24 25 22 24 23 25 22 23 24 26 24 28 26 25 23 21 21 19 21 24 26 26 26 26 26 26 25 25 25 25 25 25 25 24 24 24 24 25 25 26 27 28 27 28 28 28 28 28 28 27 27 27 28 29 29 29 29 29 29 29 29 29 28 27 27 27 27 27 27 27 27 28 28 28 28 27 27 26 25 25 24 23 22 21 20 19 18 18 17 17 16 15 16
23 24 23 28 26 29 30 28 26 25 24 24 24 23 27 30 28 24 22 26 28 24 25 27 26 26 26 25 25 25 25 25 24 24 25 25 24 24 24 24 24 24 24 25 26 26 27 27 27 28 28 28 28 28 27 27 27 28 28 28 28 28 28 28 28 28 28 27 27 27 26 26 26 26 27 27 27 28 28 27 26 26 25 24 23 22 21 21 20 18 17 16 15 16 16 15 16
29 31 29 34 30 29 28 26 31 28 27 24 24 22 28 32 35 25 28 28 27 27 27 26 26 24 24 24 24 24 24 24 24 24 23 24 23 23 23 23 23 23 23 23 24 25 25 25 26 27 28 28 28 28 27 27 27 27 26 26 26 26 28 27 26 26 27 27 27 27 27 26 25 26 26 26 26 26 27 26 26 25 25 24 23 23 21 20 19 18 17 16 15 16 15 14 15